Location: *
(55.6049°S, 142.1985°W)
Time: 01:13:56
(UTC+00:00)

Cosmos 44 - Pass Details

Date: 12 May 2021
Orbit: 571 x 791 km, 65.1° (Epoch: 23 June)

Event Time Altitude Azimuth Distance (km) Brightness Sun altitude
Exits shadow 16:29:19 - 231° (SW) 2,161 5.2 -6.4°
Reaches altitude 10° 16:30:02 10° 226° (SW) 1,922 5.0 -6.3°
Maximum altitude 16:33:36 25° 170° (S) 1,209 4.4 -5.8°
Drops below altitude 10° 16:37:11 10° 113° (ESE) 1,923 6.2 -5.4°
Sets 16:39:47 0° 99° (E) 2,836 7.5 -5.0°
